Musoma, Tanzania

4:13 PM EAT on August 23, 2017 (GMT +0300)
Musoma

Weather History for HTMU - October, 2013

Change the Weather History Date:

Sunday, October 6, 2013

  Actual Average Record
Temperature  
Mean Temperature 76 °F -  
Max Temperature 88 °F 79 °F 93 °F (1997)
Min Temperature 65 °F 72 °F 64 °F (2004)
Cooling Degree Days 12    
Growing Degree Days 26 (Base 50)    
Moisture  
Dew Point 61 °F    
Average Humidity 59    
Maximum Humidity 83    
Minimum Humidity 22    
Precipitation  
Precipitation 0.00 in 0.09 in - ()
Sea Level Pressure  
Sea Level Pressure 30.03 in    
Wind  
Wind Speed 3 mph ()    
Max Wind Speed 15 mph    
Max Gust Speed -    
Visibility 8.9 miles    
Events      
Averages and records for this station are not official NWS values.
T = Trace of Precipitation, MM = Missing Value Source: Averaged Metar Reports

Daily Weather History Graph

Daily Weather History Graph

Search for Another Location

Airport or City:

Trip Planner

Search our weather history database for the weather conditions in past years. The results will help you decide how hot, cold, wet, or windy it might be!

Date:

Astronomy

Oct. 06, 2013 Rise Set
Actual Time 6:29 AM EAT 6:36 PM EAT
Civil Twilight 6:08 AM EAT 6:57 PM EAT
Nautical Twilight 5:44 AM EAT 7:21 PM EAT
Astronomical Twilight 5:20 AM EAT 7:45 PM EAT
Moon 7:25 AM EAT (10/6) 7:53 PM EAT (10/6)
Length of Visible Light 12h 49m
Length of Day
12h 07m
New Moon, 2% of the Moon is Illuminated
Oct 6
New Moon
Oct 12
First Quarter
Oct 19
Full
Oct 27
Last Quarter
Nov 3
New

Hourly Weather History & Observations

Time (EAT) Temp. Heat Index Dew Point Humidity Pressure Visibility Wind Dir Wind Speed Gust Speed Precip Events Conditions
12:00 AM 71.6 °F - 66.2 °F 83% 30.04 in 6.2 mi Calm Calm - N/A   Partly Cloudy
1:00 AM 71.6 °F - 66.2 °F 83% 30.04 in 6.2 mi Calm Calm - N/A   Partly Cloudy
2:00 AM 71.6 °F - 64.4 °F 78% 30.04 in 6.2 mi Calm Calm - N/A   Partly Cloudy
3:00 AM 71 °F - 64 °F 71%  in 19 mi Calm Calm - -   Scattered Clouds
3:00 AM 71.6 °F - 64.4 °F 78% 30.04 in 6.2 mi Calm Calm - N/A   Partly Cloudy
4:00 AM 71.6 °F - 64.4 °F 78% 30.01 in 6.2 mi Calm Calm - N/A   Partly Cloudy
5:00 AM 68.0 °F - 59.0 °F 73% 30.04 in 6.2 mi Calm Calm - N/A   Partly Cloudy
6:00 AM 65 °F - 56 °F 66%  in 19 mi Calm Calm - -   Scattered Clouds
6:00 AM 66.2 °F - 57.2 °F 73% 30.04 in 6.2 mi Calm Calm - N/A   Partly Cloudy
8:00 AM 69.8 °F - 57.2 °F 64% 30.06 in 6.2 mi East 4.6 mph - N/A   Mostly Cloudy
10:00 AM 77.0 °F - 57.2 °F 50% 30.09 in 6.2 mi East 6.9 mph - N/A   Mostly Cloudy
11:00 AM 77.0 °F - 57.2 °F 50% 30.09 in 6.2 mi ESE 5.8 mph - N/A   Mostly Cloudy
12:00 PM 81 °F - 58 °F 34%  in 19 mi North 4.6 mph - -   Scattered Clouds
12:00 PM 80.6 °F 80.8 °F 57.2 °F 45% 30.06 in 6.2 mi North 4.6 mph - N/A   Mostly Cloudy
1:00 PM 82.4 °F 82.0 °F 57.2 °F 42% 30.04 in 6.2 mi East 9.2 mph - N/A   Mostly Cloudy
2:00 PM 86.0 °F 84.2 °F 53.6 °F 33% 30.01 in 6.2 mi East 8.1 mph - N/A   Mostly Cloudy
3:00 PM 88 °F - 54 °F 22%  in 19 mi North 11.5 mph - -   Scattered Clouds
3:00 PM 87.8 °F 85.7 °F 53.6 °F 31% 29.98 in 6.2 mi North 11.5 mph - N/A   Mostly Cloudy
4:00 PM 100.4 °F 103.6 °F 64.4 °F 31% 29.98 in 6.2 mi NW 13.8 mph - N/A   Mostly Cloudy
5:00 PM 82.4 °F 83.9 °F 64.4 °F 54% 29.98 in 6.2 mi WNW 15.0 mph - N/A   Mostly Cloudy
6:00 PM 80 °F - 62 °F 44%  in 19 mi West 11.5 mph - -   Scattered Clouds
6:00 PM 77.0 °F - 64.4 °F 65% 29.98 in 6.2 mi NW 11.5 mph - N/A   Mostly Cloudy
7:00 PM 77.0 °F - 64.4 °F 65% 30.01 in 6.2 mi WNW 11.5 mph - N/A   Scattered Clouds
8:00 PM 77.0 °F - 64.4 °F 65% 30.01 in 6.2 mi WNW 9.2 mph - N/A   Partly Cloudy
9:00 PM 75 °F - 65 °F 63%  in 19 mi West 5.8 mph - -   Scattered Clouds
9:00 PM 75.2 °F - 64.4 °F 69% 30.01 in 6.2 mi WNW 11.5 mph - N/A   Partly Cloudy
10:00 PM 75.2 °F - 64.4 °F 69% 30.04 in 6.2 mi Calm Calm - N/A   Partly Cloudy
11:00 PM 73.4 °F - 66.2 °F 78% 30.04 in 6.2 mi Calm Calm - N/A   Partly Cloudy